Location: Clatteringshaws Loch
(55.0508°N, 4.2860°W)
Time: 00:14:19
(UTC+00:00)

Daily predictions for brighter satellites

Satellite Brightness Start Highest point End
(mag) Time Altitude Azimuth Time Altitude Azimuth Time Altitude Azimuth
Cosmos 2369 Rocket 3.1 00:14:20 45° NNW 00:14:20 45° NNW 00:18:51 10° NNE
Cosmos 2227 Rocket 3.2 00:14:38 10° NNW 00:18:26 44° NNW 00:18:26 44° NNW
USA 215 3.9 00:21:59 10° E 00:30:43 46° WNW 00:35:06 10° W
ATLAS 3B R/B 3.4 00:35:39 46° E 00:35:39 46° E 00:40:50 10° NE
Cosmos 2279 Rocket 4.4 00:44:55 61° NNE 00:44:55 61° NNE 00:50:01 10° NNE
SL-16 R/B 4.2 00:44:56 21° E 00:47:28 28° NE 00:52:36 10° N
Cosmos 2263 Rocket 4.2 00:51:31 10° NNW 00:56:06 25° NNE 01:00:38 10° E
Cosmos 1943 Rocket 3.2 01:01:55 42° NNW 01:01:55 42° NNW 01:06:40 10° NNE
ATLAS 5 CENTAUR R/B 3.3 01:02:21 36° NNW 01:03:01 37° N 01:08:21 10° ENE
Cosmos 1656 Rocket 4.4 01:13:11 49° N 01:13:11 49° N 01:17:30 10° NNE
USA 238 DEB 4.1 01:15:42 56° E 01:15:42 56° E 01:21:31 10° NE
USA 238 4.1 01:15:48 56° E 01:15:48 56° E 01:21:37 10° NE
CZ-4C R/B 2.9 01:23:49 54° NNW 01:23:58 54° NNW 01:30:31 10° NE
Lacrosse 4 Rocket 4.0 01:33:00 10° NNW 01:35:56 18° NNE 01:38:55 10° ENE
COSMOS 2455 3.4 01:38:31 51° E 01:38:31 51° E 01:43:19 10° NE
Cosmos 2297 Rocket 4.0 01:33:57 10° NW 01:36:00 22° NW 01:36:00 22° NW
CZ-2C R/B 4.2 01:36:50 10° N 01:40:27 26° NW 01:40:27 26° NW
NOSS 3-2 (C) 4.3 01:45:20 41° ESE 01:45:20 41° ESE 01:50:58 10° NE
Cosmos 1656 4.3 01:51:59 49° E 01:51:59 49° E 01:56:34 10° NE
H-2A R/B 4.5 01:54:19 10° N 01:56:36 25° NNW 01:56:36 25° NNW
Cosmos 2369 Rocket 4.3 01:56:05 15° WNW 01:58:45 20° NNW 02:02:53 10° NNE
Iridium 4 Rocket 4.4 01:55:25 10° N 01:59:38 46° NW 01:59:38 46° NW
Meteor 2-10 Rocket 3.9 02:02:04 64° N 02:02:04 64° N 02:06:52 10° NNE
Cosmos 839 Rocket 4.2 02:02:18 73° SE 02:02:32 73° SE 02:08:58 10° NE
Cosmos 2227 Rocket 4.4 01:59:25 10° NW 02:00:16 13° WNW 02:00:16 13° WNW
IRS-P3 4.5 02:00:32 10° NNE 02:05:20 61° ENE 02:05:20 61° ENE
CENTAUR R/B 4.0 02:08:08 24° SE 02:09:02 25° ESE 02:14:28 10° ENE
ADEOS Rocket 4.3 02:04:34 10° NNE 02:09:20 27° E 02:11:01 23° ESE
USA 215 3.1 02:05:03 10° ESE 02:18:01 11° WNW 02:18:14 10° WNW
Cosmos 1697 Rocket 3.1 02:12:35 55° E 02:12:35 55° E 02:17:46 10° NE
Cosmos 1110 Rocket 4.3 02:17:25 65° NNE 02:17:25 65° NNE 02:21:56 10° NNE
Cosmos 1606 4.5 02:21:19 31° NE 02:21:19 31° NE 02:23:39 10° NNE
Cosmos 1553 Rocket 4.1 02:19:03 63° SE 02:19:50 70° E 02:26:15 10° NNE
Cosmos 968 Rocket 4.2 02:18:33 10° NNW 02:23:34 51° NE 02:25:29 33° ESE
ATLAS 3B R/B 3.1 02:22:52 48° W 02:24:43 61° NNW 02:31:42 10° NE
Okean 1-7 4.2 02:27:16 38° N 02:27:16 38° N 02:30:04 10° N
Cosmos 1607 4.5 02:24:48 44° WNW 02:25:58 50° NNW 02:32:05 10° NE
Cosmos 2369 3.7 02:26:19 73° NW 02:26:19 73° NW 02:31:50 10° NNE
CZ-2D R/B 3.0 02:23:00 10° NNE 02:28:14 43° E 02:29:12 39° SE
S3M 3.9 02:27:45 68° SE 02:28:23 75° E 02:34:31 10° NNE
Cosmos 1980 Rocket 2.7 02:29:17 48° ESE 02:29:35 48° ESE 02:35:02 10° NE
SL-16 R/B 2.4 02:30:01 76° S 02:30:32 84° WSW 02:36:49 10° NNW
Cosmos 2278 3.8 02:32:32 66° NW 02:32:32 66° NW 02:38:12 10° NNE
NPP 3.6 02:27:36 10° NNE 02:32:54 85° N 02:32:54 85° N
Cosmos 1302 Rocket 4.1 02:33:44 73° E 02:33:44 73° E 02:38:42 10° NNE
Meteor 2-6 Rocket 4.3 02:35:49 64° SE 02:36:22 68° E 02:42:08 10° NNE
ARIANE 5 R/B 3.1 02:32:19 10° NNE 02:37:15 48° E 02:37:52 46° ESE
Resurs 1-4 Rocket 2.7 02:32:07 10° NNE 02:37:16 49° E 02:38:02 45° SE
Cosmos 1782 4.0 02:40:45 40° N 02:40:45 40° N 02:43:27 10° N
Cosmos 2263 Rocket 2.3 02:35:23 10° NNW 02:41:01 72° NE 02:46:06 13° SE
Cosmos 1536 3.8 02:39:46 10° N 02:42:50 45° NNE 02:42:50 45° NNE
Cosmos 1709 Rocket 4.1 02:39:59 10° N 02:46:14 74° ENE 02:48:50 37° SSE
Cosmos 1943 Rocket 4.3 02:43:25 13° WNW 02:46:31 19° NNW 02:50:31 10° NNE
NOSS 3-2 (A) 3.4 02:47:21 66° WSW 02:48:25 87° NW 02:55:27 10° NE
ATLAS 5 CENTAUR R/B 3.4 02:43:50 10° NW 02:48:54 40° NNE 02:54:34 10° E
Cosmos 44 3.7 02:51:37 51° ESE 02:51:37 51° ESE 02:55:59 10° NE
Cosmos 44 Rocket 3.4 02:54:22 69° ESE 02:54:22 69° ESE 02:59:07 10° NE
Cosmos 1674 Rocket 3.8 02:54:57 65° E 02:54:57 65° E 02:59:17 10° NNE
IRS-1D 3.5 02:50:55 10° NNE 02:55:53 68° ESE 02:56:24 63° SE
Meteor 1-11 Rocket 3.6 02:50:16 10° NNW 02:56:04 72° W 02:56:19 70° WSW
ERS-1 4.4 02:51:11 10° NNE 02:56:20 78° ESE 02:56:46 72° SSE
CBERS 1 LM4 rocket 4.2 02:55:06 10° NNE 02:59:53 83° ESE 03:00:01 82° SE
Meteor 1-10 Rocket 4.2 03:02:15 64° SW 03:03:04 75° WNW 03:09:02 10° NNE
UNKNOWN OBJECT B 3.7 03:00:43 10° NNE 03:04:11 40° E 03:04:11 40° E
Cosmos 2360 4.4 03:03:24 53° S 03:04:34 66° ESE 03:10:16 10° NE
USA 238 DEB 4.1 03:03:07 37° W 03:05:46 58° NNW 03:12:44 10° NE
USA 238 4.1 03:03:14 37° W 03:05:52 58° NNW 03:12:50 10° NE
ADEOS II 4.5 03:02:57 10° NE 03:06:41 19° E 03:10:25 10° SE
Cosmos 1745 Rocket 4.2 03:01:35 10° NNW 03:07:21 46° W 03:07:21 46° W
MOZ.5/SAFIR/RUBIN 5/SL-8 3.7 03:06:54 70° SSE 03:07:26 85° ENE 03:12:08 10° NNW
ERBS 3.5 03:12:31 44° ENE 03:12:31 44° ENE 03:15:04 10° ENE
Cosmos 1777 Rocket 4.4 03:07:44 10° NNW 03:13:02 65° ENE 03:18:19 10° SE
CZ-4C R/B 3.7 03:08:58 15° WNW 03:13:42 41° N 03:20:20 10° ENE
Lacrosse 4 Rocket 2.1 03:11:27 10° NW 03:15:31 53° NE 03:19:39 10° ESE
Meteor 1-27 Rocket 3.8 03:13:59 49° SSW 03:15:42 89° ESE 03:21:39 10° NNE
Landsat 4 4.3 03:17:05 51° NNW 03:17:05 51° NNW 03:19:58 10° NNW
AQUA 4.2 03:11:41 10° N 03:16:14 48° WNW 03:16:14 48° WNW
IRS-1C 4.3 03:18:14 10° N 03:23:26 54° WNW 03:24:12 49° W
COSMOS 2455 3.5 03:21:39 35° W 03:23:34 47° NW 03:29:24 10° NE
Cosmos 1975 4.2 03:22:19 10° N 03:26:12 39° ENE 03:30:02 10° SE
CZ-2D R/B 3.9 03:23:45 10° NNE 03:28:12 64° ESE 03:29:34 41° SSE
EO 1 Del DPAF 4.5 03:24:57 10° SE 03:28:36 42° ENE 03:32:17 10° N
Cosmos 2184 Rocket 4.2 03:25:14 10° N 03:31:26 71° ENE 03:37:39 10° SSE
Cosmos 1656 4.4 03:33:24 34° W 03:34:57 41° NW 03:40:16 10° NNE
ADEOS 3.6 03:30:04 10° NNE 03:35:15 64° WNW 03:36:31 48° WSW
NOSS 3-2 (C) 3.7 03:32:45 39° WSW 03:35:18 69° NNW 03:42:23 10° NE
Okean 1 Rocket 3.9 03:34:33 10° NNW 03:37:36 34° WNW 03:37:36 34° WNW
USA 81 4.1 03:37:34 48° SW 03:38:48 61° WNW 03:44:04 10° N
Cosmos 2322 Rocket 2.5 03:37:08 31° S 03:39:47 61° ESE 03:45:20 10° NE
MOS 1 Rocket 4.0 03:37:17 10° NNE 03:42:09 52° E 03:45:24 18° S
SL-16 R/B 2.5 03:40:00 30° S 03:42:48 63° ESE 03:48:26 10° NE
Cosmos 1544 Rocket 3.7 03:40:56 10° N 03:45:25 78° ENE 03:49:53 10° SSE
Cosmos 1867 4.4 03:42:21 10° NW 03:47:42 51° NNE 03:53:02 10° ESE
Cosmos 1461 2.6 03:47:33 64° WSW 03:48:07 85° NW 03:52:07 10° NE
Gblst 52 Del rocket 4.5 03:47:59 39° WSW 03:49:22 47° SSW 03:55:10 10° SE
Cosmos 1500 3.6 03:45:45 10° N 03:49:34 63° ENE 03:53:23 10° SSE
Okean O Rocket 2.8 03:46:48 10° NNE 03:51:01 41° E 03:55:14 10° S
Cosmos 2344 4.5 03:45:07 10° NW 03:55:04 73° SW 04:08:44 10° SSE
USA 215 3.7 03:49:20 10° SSE 03:55:18 36° SW 03:58:32 23° W
ADEOS Rocket 2.8 03:49:45 10° NNE 03:55:28 65° WNW 03:57:58 33° SW
Cosmos 1606 4.4 03:56:24 21° NW 03:56:24 21° NW 03:58:59 10° NNW
Cosmos 1697 Rocket 3.4 03:54:18 29° W 03:56:26 41° NW 04:01:48 10° NNE
Cosmos 1346 Rocket 2.8 03:56:08 53° WSW 03:56:37 58° WNW 04:00:29 10° N
CENTAUR R/B 2.7 03:55:19 31° SW 03:58:43 82° SE 04:06:02 10° NE
Cosmos 1844 Rocket 2.9 03:54:16 10° NNW 03:59:53 70° NE 04:05:27 10° SE
BREEZE M DEB (TANK) 4.4 03:44:39 10° W 04:03:26 59° SSW 04:08:29 10° ESE
Cosmos 2154 Rocket 4.3 03:58:39 10° N 04:04:53 69° ENE 04:11:03 10° SSE
Cosmos 968 Rocket 4.0 04:00:40 10° NW 04:05:13 33° WSW 04:05:24 33° WSW
MOS 1-B 4.3 03:59:51 10° NNE 04:05:43 87° ESE 04:10:23 17° SSW
Cosmos 2278 Rocket 3.4 04:01:06 10° NNW 04:06:35 45° NE 04:12:00 10° ESE
Meteor 1-12 Rocket 4.1 04:01:02 10° NNW 04:06:42 81° WSW 04:12:23 10° S
CZ-4B R/B 3.4 04:04:33 10° NNE 04:08:05 49° E 04:11:01 14° S
Cosmos 1992 Rocket 4.1 04:05:54 33° SW 04:08:10 61° WNW 04:13:24 10° NNE
CZ-2D R/B 2.7 04:03:11 10° N 04:08:21 42° WNW 04:10:33 29° WSW
Cosmos 2360 Rocket 3.0 04:07:25 10° S 04:12:43 48° ESE 04:18:08 10° NE
Cosmos 1980 Rocket 2.7 04:11:03 27° W 04:13:42 45° NW 04:19:11 10° NNE
SL-16 R/B 3.8 04:15:06 20° W 04:15:07 20° W 04:19:35 10° NW
Cosmos 2315 Rocket 4.2 04:12:14 24° SW 04:15:54 54° WNW 04:22:01 10° N
ARIANE 5 R/B 3.3 04:11:42 10° N 04:16:17 35° WNW 04:18:13 26° W
ATLAS 3B R/B 3.7 04:10:06 11° WNW 04:16:38 42° N 04:23:08 10° ENE
ERS-2 4.5 04:13:46 10° NE 04:16:51 24° E 04:19:55 10° SSE
Thor Agena Rocket 4.4 04:12:02 10° SE 04:16:54 50° ENE 04:21:48 10° N
Resurs 1-4 Rocket 2.8 04:12:13 10° N 04:17:01 36° WNW 04:19:08 26° WSW
Cosmos 1378 Rocket 4.0 04:16:18 32° WSW 04:17:33 40° WNW 04:21:40 10° N
Cosmos 1455 Rocket 3.0 04:15:13 10° NNW 04:19:34 63° W 04:23:56 10° S
Okean 3 4.2 04:22:36 29° WSW 04:23:53 36° WNW 04:27:52 10° N
Cosmos 2263 Rocket 3.0 04:19:53 10° NW 04:24:30 27° WSW 04:27:13 18° SW
Genesis I 3.6 04:22:52 24° SSW 04:25:02 60° SE 04:28:56 10° NE
Meteor 1-18 Rocket 4.2 04:19:46 10° S 04:25:20 86° ESE 04:30:59 10° NNE
Cosmos 1610 Rocket 4.4 04:20:32 10° NNW 04:26:44 73° W 04:33:00 10° S
DNEPR-1 R/B 4.0 04:25:10 21° SW 04:28:59 84° SE 04:33:48 10° NE
Cosmos 1975 Rocket 3.3 04:29:20 24° SW 04:31:35 47° WNW 04:35:48 10° N
Cosmos 1898 Rocket 3.9 04:26:54 10° NNW 04:32:09 68° ENE 04:37:20 10° SE
Cosmos 44 3.8 04:30:03 22° W 04:32:46 45° NNW 04:37:13 10° NE
Cosmos 1812 2.8 04:31:50 21° SSW 04:34:14 59° WNW 04:38:05 10° N
ATLAS 5 CENTAUR R/B 2.4 04:28:34 10° NW 04:34:16 82° NE 04:40:35 10° SE
Cosmos 44 Rocket 4.2 04:33:05 19° W 04:36:07 39° NNW 04:40:41 10° NE
UNKNOWN OBJECT B 3.9 04:35:34 10° N 04:38:38 25° WNW 04:39:41 21° W
NOSS 3-2 (A) 4.4 04:34:44 15° W 04:40:03 46° NNW 04:47:03 10° ENE
Nadezhda 1 Rocket 3.9 04:34:04 10° S 04:40:09 87° W 04:46:17 10° N
Cosmos 2341 Rocket 4.0 04:34:15 10° N 04:40:34 88° E 04:46:49 10° S
Cosmos 2322 4.1 04:37:09 10° SSW 04:42:49 66° ESE 04:48:31 10° NE
Cosmos 2074 Rocket 4.4 04:37:57 10° NNW 04:43:47 42° W 04:49:34 10° SSW
USA 116 4.0 04:39:34 10° SSE 04:43:52 83° WSW 04:48:46 10° NNW
Meteor 1-31 Rocket 4.0 04:42:52 10° NNE 04:46:32 42° E 04:50:10 10° S
ADEOS II 2.1 04:41:49 10° NNE 04:47:08 86° WNW 04:52:24 10° SSW
ERBS 2.6 04:45:51 16° WNW 04:48:29 66° N 04:51:59 10° E
Cosmos 1536 Rocket 3.5 04:46:46 10° SSW 04:51:15 81° WNW 04:55:46 10° N
Cosmos 1743 2.7 04:47:29 10° NNW 04:51:21 62° W 04:55:10 10° S
Cosmos 1666 2.7 04:48:21 10° NNW 04:52:14 88° ENE 04:56:07 10° S
Molniya-1 4.0 04:50:53 19° SW 04:52:42 70° SE 04:57:06 10° NE
Lacrosse 4 Rocket 2.2 04:50:28 10° WNW 04:54:03 28° WSW 04:57:42 10° S
Cosmos 1340 2.6 04:50:33 10° SSW 04:54:20 70° WNW 04:58:08 10° N
CZ-2C R/B 4.2 04:52:36 10° SSW 04:56:52 37° W 05:01:06 10° NNW
CZ-4B DEB 4.2 04:51:57 10° NNE 04:57:34 78° WNW 05:03:07 10° SSW
Cosmos 1844 3.7 04:51:59 10° NW 04:57:45 68° WSW 05:03:25 10° SSE
Okean 1 3.6 04:57:06 10° SSW 05:01:04 50° WNW 05:05:03 10° N
IRAS Rocket 4.2 04:55:38 10° NNE 05:01:11 82° WNW 05:06:44 10° SSW
SKYMED 2 4.0 04:57:29 10° SSE 05:01:48 68° ENE 05:06:08 10° N
PSLV R/B 3.6 04:57:39 10° N 05:01:57 67° WNW 05:06:15 10° SSW
Cosmos 1975 3.8 04:59:08 10° NNW 05:02:35 27° W 05:06:00 10° SSW
EO 1 Del DPAF 4.3 04:59:54 10° SSW 05:03:07 25° W 05:06:21 10° NW
CZ-4C R/B 3.3 04:56:58 10° NW 05:03:24 58° NNE 05:10:47 10° ESE
CZ-4B R/B 3.3 04:58:27 10° NNE 05:04:08 71° WNW 05:09:43 10° SSW
Orbus 7S? 3.6 04:58:59 14° WSW 05:04:17 84° NNW 05:07:29 10° ENE
Cosmos 1937 Rocket 3.6 05:01:13 10° NNW 05:06:35 88° ENE 05:11:55 10° SSE
Cosmos 2298 Rocket 4.0 05:04:41 10° NNW 05:10:03 77° WSW 05:15:22 10° SSE
COSMOS 2455 4.4 05:05:50 10° WNW 05:10:55 27° N 05:16:00 10° NE
Cosmos 1606 Rocket 3.8 05:11:56 10° N 05:16:25 80° ENE 05:20:53 10° SSE
MOS 1 Rocket 4.3 05:15:54 10° N 05:20:10 29° WNW 05:24:13 10° WSW
Cosmos 2322 Rocket 2.9 05:18:58 10° WSW 05:24:10 38° NW 05:29:25 10° NNE
Cosmos 2237 4.3 05:19:20 10° SSW 05:25:06 86° ESE 05:30:53 10° NE
SL-16 R/B 3.0 05:22:01 10° WSW 05:27:17 37° NW 05:32:35 10° NNE
Okean O Rocket 2.4 05:23:22 10° N 05:27:20 33° WNW 05:31:20 10° SW
Cosmos 1461 4.2 05:24:21 10° W 05:27:46 27° NNW 05:31:12 10° NE
Iridium 2 3.6 05:24:01 10° N 05:27:51 75° W 05:31:40 10° S
COSMOS 2428 3.0 05:23:02 10° SSW 05:28:43 77° ESE 05:34:26 10° NE
Meteor 1-15 Rocket 4.3 05:24:41 10° NNW 05:30:35 76° W 05:36:30 10° S
Cosmos 2369 Rocket 4.2 05:26:19 10° NNW 05:31:02 27° NNE 05:35:44 10° E
Meteor 2-9 Rocket 4.3 05:25:39 10° NNW 05:31:19 58° W 05:36:49 10° S
Meteor PRIRODA 3.9 05:27:41 10° N 05:31:22 52° WNW 05:35:02 10° SSW
Cosmos 1867 3.8 05:26:06 10° NW 05:31:24 52° SW 05:36:39 10° SSE
Cosmos 2208 Rocket 4.1 05:27:16 10° SSW 05:32:45 84° WNW 05:38:14 10° NNE
Meteor 1-19 Rocket 4.3 05:29:09 10° SSW 05:34:48 73° WNW 05:40:35 10° NNE
Cosmos 1959 Rocket 4.4 05:28:43 10° NNW 05:34:49 74° W 05:40:55 10° S
Okean-O 2.6 05:30:52 10° NNE 05:35:20 74° WNW 05:39:45 10° SSW
ADEOS Rocket 4.5 05:36:22 10° N 05:39:59 17° NW 05:43:28 10° W
Cosmos 2219 Rocket 2.8 05:35:18 10° SSW 05:40:46 60° ESE 05:46:18 10° NE
CZ-4B R/B 4.2 05:36:51 10° N 05:41:16 64° WNW 05:45:45 10° SSW
